Washington, NC

11:46 PM EDT on March 23, 2017 (GMT -0400)
Warren

Weather History for KOCW - February, 2013

Change the Weather History Date:

Friday, February 15, 2013

  Actual Average (KPGV) Record (KPGV)
Temperature  
Mean Temperature 46 °F -  
Max Temperature 60 °F 59 °F 80 °F (1989)
Min Temperature 32 °F 34 °F 19 °F (1969)
Degree Days  
Heating Degree Days 19    
Moisture  
Dew Point 30 °F    
Average Humidity 59    
Maximum Humidity 84    
Minimum Humidity 15    
Precipitation  
Precipitation 0.00 in - - ()
Sea Level Pressure  
Sea Level Pressure 30.03 in    
Wind  
Wind Speed 1 mph (South)    
Max Wind Speed 7 mph    
Max Gust Speed -    
Visibility 8 miles    
Events      
Averages and records for this station are not official NWS values.
T = Trace of Precipitation, MM = Missing Value Source: NWS Daily Summary

Daily Weather History Graph

Daily Weather History Graph

Search for Another Location

Airport or City:

Trip Planner

Search our weather history database for the weather conditions in past years. The results will help you decide how hot, cold, wet, or windy it might be!

Date:

Astronomy

Feb. 15, 2013 Rise Set
Actual Time 6:54 AM EST 5:50 PM EST
Civil Twilight 6:28 AM EST 6:16 PM EST
Nautical Twilight 5:58 AM EST 6:46 PM EST
Astronomical Twilight 5:29 AM EST 7:16 PM EST
Moon 9:43 AM EST (2/15) 11:34 PM EST (2/15)
Length of Visible Light 11h 47m
Length of Day
10h 55m
Waxing Crescent, 30% of the Moon is Illuminated
Feb 15
Waxing Crescent
Feb 17
First Quarter
Feb 25
Full
Mar 4
Last Quarter
Mar 11
New

Hourly Weather History & Observations

Time (EST) Temp. Windchill Dew Point Humidity Pressure Visibility Wind Dir Wind Speed Gust Speed Precip Events Conditions
12:15 AM 37.6 °F - 32.5 °F 82% 30.07 in 10.0 mi Calm Calm - N/A   Clear
12:35 AM 37.6 °F - 32.5 °F 82% 30.07 in 7.0 mi Calm Calm - N/A   Clear
12:55 AM 37.6 °F - 32.5 °F 82% 30.08 in 10.0 mi Calm Calm - N/A   Clear
1:35 AM 37.6 °F - 32.5 °F 82% 30.08 in 5.0 mi Calm Calm - N/A   Haze
1:55 AM 37.6 °F - 32.5 °F 82% 30.08 in 7.0 mi Calm Calm - N/A   Clear
2:15 AM 37.6 °F - 32.5 °F 82% 30.07 in 7.0 mi Calm Calm - N/A   Clear
2:35 AM 35.1 °F - 30.2 °F 82% 30.07 in 7.0 mi Calm Calm - N/A   Clear
2:55 AM 34.9 °F - 30.2 °F 83% 30.08 in 7.0 mi Calm Calm - N/A   Clear
3:15 AM 33.6 °F - 29.1 °F 84% 30.07 in 10.0 mi Calm Calm - N/A   Clear
3:55 AM 33.1 °F - 28.8 °F 84% 30.07 in 7.0 mi Calm Calm - N/A   Clear
4:15 AM 32.5 °F - 28.0 °F 83% 30.08 in 7.0 mi Calm Calm - N/A   Clear
4:35 AM 33.8 °F - 29.3 °F 84% 30.08 in 7.0 mi Calm Calm - N/A   Clear
4:55 AM 32.5 °F - 28.0 °F 83% 30.08 in 10.0 mi Calm Calm - N/A   Clear
5:15 AM 32.5 °F - 28.0 °F 83% 30.08 in 10.0 mi Calm Calm - N/A   Clear
5:35 AM 32.5 °F - 28.0 °F 83% 30.08 in 7.0 mi Calm Calm - N/A   Scattered Clouds
5:55 AM 32.5 °F - 28.0 °F 83% 30.08 in 5.0 mi Calm Calm - N/A   Haze
6:15 AM 32.5 °F - 28.0 °F 83% 30.08 in 3.0 mi Calm Calm - N/A   Haze
6:35 AM 32.5 °F - 28.0 °F 83% 30.08 in 2.5 mi Calm Calm - N/A   Haze
6:55 AM 32.5 °F - 28.0 °F 83% 30.08 in 1.0 mi Calm Calm - N/A   Haze
7:15 AM 32.5 °F - 28.0 °F 83% 30.08 in 0.5 mi Calm Calm - N/A   Haze
7:35 AM 32.5 °F - 28.0 °F 83% 30.09 in 0.5 mi Calm Calm - N/A   Haze
7:55 AM 32.5 °F - 27.9 °F 83% 30.10 in 2.5 mi Calm Calm - N/A   Haze
8:15 AM 34.9 °F - 30.2 °F 83% 30.10 in 0.2 mi Calm Calm - N/A   Haze
8:35 AM 38.8 °F - 33.8 °F 82% 30.10 in 2.5 mi Calm Calm - N/A   Haze
8:55 AM 42.8 °F - 37.4 °F 81% 30.10 in 5.0 mi Calm Calm - N/A   Haze
9:15 AM 43.5 °F - 38.3 °F 82% 30.11 in 7.0 mi Calm Calm - N/A   Clear
9:35 AM 46.8 °F - 40.1 °F 78% 30.10 in 10.0 mi Calm Calm - N/A   Clear
9:55 AM 50.2 °F - 40.6 °F 70% 30.10 in 10.0 mi WNW 3.5 mph - N/A   Clear
10:15 AM 52.7 °F - 40.3 °F 63% 30.09 in 10.0 mi West 3.5 mph - N/A   Clear
10:35 AM 52.7 °F - 38.1 °F 58% 30.09 in 10.0 mi Calm Calm - N/A   Clear
10:55 AM 52.7 °F - 37.6 °F 56% 30.09 in 10.0 mi Calm Calm - N/A   Clear
11:15 AM 53.8 °F - 36.5 °F 52% 30.08 in 10.0 mi Calm Calm - N/A   Clear
11:35 AM 55.6 °F - 32.0 °F 41% 30.08 in 10.0 mi Calm Calm - N/A   Clear
11:55 AM 58.1 °F - 34.5 °F 41% 30.07 in 10.0 mi Calm Calm - N/A   Clear
12:15 PM 58.1 °F - 29.5 °F 34% 30.06 in 10.0 mi Calm Calm - N/A   Clear
12:55 PM 59.0 °F - 21.4 °F 23% 30.04 in 10.0 mi Calm Calm - N/A   Clear
1:15 PM 58.6 °F - 10.4 °F 15% 30.03 in 10.0 mi WSW 4.6 mph - N/A   Clear
1:35 PM 59.0 °F - 12.7 °F 16% 30.02 in 10.0 mi South 4.6 mph - N/A   Clear
1:55 PM 58.8 °F - 14.4 °F 18% 30.01 in 10.0 mi Calm Calm - N/A   Clear
2:15 PM 60.4 °F - 16.7 °F 18% 30.01 in 10.0 mi SW 4.6 mph - N/A   Clear
2:35 PM 60.4 °F - 15.6 °F 17% 30.00 in 10.0 mi South 5.8 mph - N/A   Clear
2:55 PM 60.4 °F - 14.5 °F 17% 30.00 in 10.0 mi Calm Calm - N/A   Clear
3:15 PM 60.4 °F - 15.8 °F 18% 29.99 in 10.0 mi South 3.5 mph - N/A   Clear
3:35 PM 60.4 °F - 16.5 °F 18% 29.98 in 10.0 mi Calm Calm - N/A   Clear
3:55 PM 60.4 °F - 16.9 °F 18% 29.98 in 10.0 mi South 3.5 mph - N/A   Clear
4:15 PM 60.4 °F - 16.5 °F 18% 29.97 in 10.0 mi Calm Calm - N/A   Clear
4:35 PM 60.4 °F - 18.5 °F 20% 29.97 in 10.0 mi SSE 4.6 mph - N/A   Clear
4:55 PM 60.3 °F - 21.4 °F 22% 29.97 in 10.0 mi SSE 4.6 mph - N/A   Clear
5:15 PM 58.1 °F - 23.0 °F 26% 29.96 in 10.0 mi Calm Calm - N/A   Clear
5:35 PM 58.1 °F - 28.9 °F 33% 29.97 in 10.0 mi SE 5.8 mph - N/A   Clear
5:55 PM 53.6 °F - 31.5 °F 43% 29.96 in 10.0 mi SE 5.8 mph - N/A   Clear
6:15 PM 52.7 °F - 33.6 °F 48% 29.97 in 10.0 mi SE 3.5 mph - N/A   Clear
6:35 PM 52.7 °F - 35.8 °F 53% 29.97 in 10.0 mi SSE 6.9 mph - N/A   Clear
6:55 PM 52.7 °F - 35.6 °F 52% 29.97 in 10.0 mi SSE 4.6 mph - N/A   Clear
7:15 PM 52.7 °F - 36.7 °F 55% 29.98 in 10.0 mi SSE 3.5 mph - N/A   Clear
7:35 PM 52.7 °F - 39.6 °F 61% 29.98 in 10.0 mi South 6.9 mph - N/A   Clear
7:55 PM 52.7 °F - 36.7 °F 55% 29.98 in 10.0 mi SSE 5.8 mph - N/A   Clear
8:15 PM 50.2 °F - 34.7 °F 55% 29.98 in 10.0 mi South 5.8 mph - N/A   Clear
8:35 PM 49.5 °F - 34.0 °F 55% 29.98 in 10.0 mi South 3.5 mph - N/A   Clear
8:55 PM 48.0 °F - 33.6 °F 57% 29.99 in 10.0 mi SSE 3.5 mph - N/A   Clear
9:15 PM 47.7 °F - 35.6 °F 63% 29.99 in 10.0 mi South 3.5 mph - N/A   Clear
9:35 PM 47.1 °F - 36.3 °F 66% 29.99 in 10.0 mi South 4.6 mph - N/A   Clear
9:55 PM 46.6 °F - 36.5 °F 68% 29.99 in 10.0 mi South 3.5 mph - N/A   Clear
10:15 PM 46.4 °F - 36.7 °F 69% 29.98 in 10.0 mi Calm Calm - N/A   Clear
10:35 PM 45.9 °F 44.6 °F 36.9 °F 71% 29.98 in 10.0 mi SSW 3.5 mph - N/A   Clear
10:55 PM 45.3 °F - 36.7 °F 72% 29.98 in 10.0 mi Calm Calm - N/A   Clear
11:15 PM 45.1 °F - 37.2 °F 74% 29.97 in 10.0 mi Calm Calm - N/A   Clear
11:35 PM 44.4 °F - 36.7 °F 74% 29.97 in 10.0 mi Calm Calm - N/A   Clear
11:55 PM 43.9 °F - 36.1 °F 74% 29.96 in 10.0 mi Calm Calm - N/A   Clear